Location: Bilsen
(53.7722°N, 9.8765°E)
Time: 19:30:20
(UTC+00:00)

MSX - Pass Details

Date: 18 February 2020
Orbit: 894 x 906 km, 98.8° (Epoch: 30 March)

Event Time Altitude Azimuth Distance (km) Brightness Sun altitude
Rises 03:45:10 0° 14° (NNE) 3,528 7.3 -25.5°
Reaches altitude 10° 03:47:35 10° 13° (NNE) 2,582 6.5 -25.2°
Maximum altitude 03:53:19 73° 290° (WNW) 940 3.7 -24.4°
Enters shadow 03:54:40 53° 225° (SW) 1,097 3.9 -24.2°
